Back to catalog

CZ-6A R/B

AliveSSO
NORAD 52152·ROCKET BODY·🇨🇳 China

Launched Mar 29, 2022 from Taiyuan Satellite Launch Center

Loading…

Next Passes (next 24 hours)

TLE

FreshSource: Space-Track

Epoch: Sep 14, 2026, 02:12 UTC

1 52152U 22031C   26257.09223438  .00001105  00000-0  75588-4 0  9990
2 52152  97.7925 104.2561 0015813 267.0934  92.8484 15.08184614244704

Track CZ-6A R/B in real time with AllMySat

Download on the App Store